Regional Weather Roundup
Issued by NWS Pendleton, OR

Home | Current Version | Previous Version | Text Only | Print | Product List | Glossary On
Versions: 1 2 3 4 5 6 7 8 9 10 11 12 13 14 15 16 17 18 19 20 21 22 23 24 25 26 27 28 29 30 31 32 33 34 35 36 37 38 39 40 41 42 43 44 45 46 47 48 49 50
000
ASUS46 KPDT 061425
RWRPDT
PENDLETON REGIONAL WEATHER ROUNDUP
NATIONAL WEATHER SERVICE PENDLETON OREGON
700 AM PDT WED MAY 6 2015

NOTE: FAIR INDICATES FEW OR NO CLOUDS BELOW 12,000 FEET WITH NO
SIGNIFICANT WEATHER AND/OR OBSTRUCTIONS TO VISIBILITY.

# INDICATES UNOFFICIAL STATION AND DATA

WAZ520-061510-
EAST SLOPES OF WASHINGTON CASCADES

CITY            SKY/WX      TMP DP  RH  WIND    PRES   REMARKS
#BUMPING DAM    N/A         31  N/A N/A CALM    N/A
#CLE ELUM HS    N/A         37  32  82  W2      29.96S
#CLE ELUM LAKE  N/A         35  29  78  N1      30.02R
#CLIFFDEL 2NW   N/A         32  29  89  N1      N/A
#GLENWOOD       N/A         34  32  92  CALM    30.04R
#MANASTASH CYN  N/A         36  25  64  CALM    29.96R
#NELSON         N/A         39  33  79  CALM    30.05R
#NELSON 3SW     N/A         38  30  73  CALM    30.25R
#NILE           N/A         34  31  89  CALM    29.29R
#RONALD 2NW     N/A         35  14  41  CALM    29.88R
#SNOWDEN        N/A         38  30  73  CALM    N/A
#TEANAWAY 4NE   N/A         30  28  92  CALM    N/A
#TROUT LAKE 1NE N/A         38  33  82  CALM    30.04S
$$

WAZ521-061510-
SIMCOE HIGHLANDS

CITY            SKY/WX      TMP DP  RH  WIND    PRES   REMARKS
#BICKLETON HS   N/A         39  19  44  VRB5    N/A
#CENTERVILLE 4W N/A         43  36  76  W12     29.75S WCI 37
#CENTERVILLE 1SWN/A         40  34  79  W3      30.01R
#GOLDENDALE     N/A         39  35  85  SW3     N/A
#GOLDENDALE 1NE N/A         38  27  64  SW1     N/A
#GOLDENDALE 5WNWN/A         41  35  79  W6      30.01
#GOODNOE HILLS  N/A         46  38  73  NW7     N/A
#LYLE 6NE       N/A         42  37  82  W3      30.01S
$$

WAZ026-061510-
KITTITAS VALLEY

CITY            SKY/WX      TMP DP  RH  WIND    PRES   REMARKS
ELLENSBURG AP   SUNNY       44  32  62  NW15    30.00R WCI 37
YTC-OPS AREA    SUNNY       36  30  79  W23G32  29.94R WCI 24
#ELLENSBURG CWU N/A         42  32  67  NW9     29.95R
#ELLENSBURG 3NE N/A         41  33  73  NW8     30.00R
#ELLENSBURG 1E  N/A         40  30  67  CALM    N/A
#KITTITAS 4N    N/A         39  30  70  N1      28.30R
#KITTITAS 3S    N/A         36  32  85  CALM    30.01R
#THORP 6N       N/A         37  32  82  NW14    30.03R WCI 28
$$

WAZ027-061510-
YAKIMA VALLEY

CITY            SKY/WX      TMP DP  RH  WIND    PRES   REMARKS
SUNNYSIDE AP    PTCLDY      39  32  76  CALM    30.02R
YAKIMA AIRPORT  SUNNY       40  30  67  W3      30.02R
#DONALD 2NE     N/A         50  26  39  N1      28.86R
#GRANDVIEW      N/A         42  31  65  CALM    30.03R
#MABTON         N/A         45  34  65  SW1     30.01R
#MOXEE 2E       N/A         63   8  11  NE5     29.79
#NACHES 2SW     N/A         43  34  70  W9      29.98S
#OUTLOOK DOT    N/A         N/A N/A N/A S8      N/A
#SELAH 8E       N/A         40  31  70  E3      N/A
#TERRACE HTS    N/A         42  32  67  NW1     29.98R
#TOPPENISH      N/A         44  34  68  CALM    29.93R
#WAPATO 4NE     N/A         50  26  39  N1      28.86R
#WEST VALLEY    N/A         41  32  70  CALM    29.99R
#W YAKIMA       N/A         46  34  63  N1      30.01R
#WHITE SWAN 5E  N/A         37  32  82  CALM    30.03R
$$

WAZ028-061510-
LOWER COLUMBIA BASIN...WASHINGTON

CITY            SKY/WX      TMP DP  RH  WIND    PRES   REMARKS
HANFORD         MOSUNNY     47  32  56  NW5     30.01
PASCO           SUNNY       44  34  68  E6      30.03R
RICHLAND AWOS   SUNNY       45  34  65  CALM    30.02S
#BASIN CITY 5SW N/A         40  35  82  CALM    30.01S
#BENTON CITY    N/A         42  34  73  NW3     29.93R
#CONNELL 5N     N/A         36  29  75  CALM    30.01R
#CONNELL 5NW    N/A         39  32  76  SE2     29.97R
#ELTOPIA 6NW    N/A         41  34  76  CALM    28.97S
#KAHLOTUS       N/A         42  33  70  W5      30.00R
#KENNEWICK 3S   N/A         44  37  76  SE1     30.02R
#PATERSON       N/A         43  38  82  CALM    30.01S
#PROSSER        N/A         43  29  57  CALM    30.01R
#SAGEMOOR 2W    N/A         41  37  86  E1      29.86R
#TOUCHET 2S     N/A         46  38  73  N2      30.02R
#WEST PASCO     N/A         43  34  70  CALM    30.05R
$$

WAZ029-061510-
FOOTHILLS OF THE BLUES...WASHINGTON

CITY            SKY/WX      TMP DP  RH  WIND    PRES   REMARKS
WALLA WALLA AP  SUNNY       47  34  60  S8      30.02R
#DAYTON SCHOOL  N/A         40  27  59  E1      30.03R
#LOWDEN 2SE     N/A         43  37  79  CALM    30.00R
#PLEASANT VIEW 1N/A         42  35  76  S7      30.04R
#PRESCOTT       N/A         43  37  79  CALM    30.02R
#SUDBURY        N/A         43  N/A N/A CALM    N/A
#WHITMAN COLLEGEN/A         46  35  65  S6      30.07S
#WAITSBURG 5S   N/A         42  35  76  S8      30.11R
#WAITSBURG 8N   N/A         45  19  35  S10     29.88S
#WALLA WALLA 5E N/A         45  38  76  CALM    N/A
#WHITMAN MISSIONN/A         46  39  76  S2      30.05R
$$

WAZ030-061510-
BLUE MOUNTAINS...WASHINGTON

CITY            SKY/WX      TMP DP  RH  WIND    PRES   REMARKS
#DIXIE 5SE      N/A         40  30  67  S7      29.92R
$$

ORZ009-041-WAZ024-061510-
COLUMBIA RIVER GORGE

CITY            SKY/WX      TMP DP  RH  WIND    PRES   REMARKS
HOOD RIVER AP   MOCLDY      48  41  77  CALM    30.06S
THE DALLES AP   MOCLDY      50  40  68  NW8     30.05S
#ARLINGTON AIRPON/A         45  39  79  W3      N/A
#ARLINGTON HS   N/A         48  39  71  N3      29.95R
#CELILO DOT     N/A         51  39  63  W8      N/A
#MOSIER 1S      N/A         46  35  65  CALM    30.03S
#MURDOCK        N/A         50  42  74  NW8     30.07S
#RUFUS DOT      N/A         50  38  63  W18     N/A

$$

ORZ510-061510-
NORTH CENTRAL OREGON

CITY            SKY/WX      TMP DP  RH  WIND    PRES   REMARKS
#CHENOWITH 1W   N/A         40  37  89  W20     N/A    WCI 30
#COW CYN RST AREN/A         37  29  72  W3      N/A
#DUFUR 9E       N/A         40  34  79  W6      30.08S
#GRASS VALLEY 1SN/A         39  35  85  W3      30.07S
#KENT DOT       N/A         37  32  82  W8      N/A
#MAUPIN SCHOOL  N/A         45  36  70  CALM    30.06S
#MORO SCHOOL    N/A         42  38  86  NW7     30.03S
#SHANIKO 5WSW   N/A         36  27  69  W10     N/A
#SHANIKO 4NW    N/A         35  28  75  W6      29.99S
#TYGH VALLEY 2NEN/A         42  36  79  N1      30.04R
#WAPANITIA AIRPON/A         42  35  76  W5      30.04R
#WASCO DOT      N/A         45  39  79  W8      N/A
#WASCO AIRPORT  N/A         41  35  79  W10     N/A
#WASCO 5NE      N/A         42  37  82  SW12    30.01F WCI 35
$$

ORZ511-061510-
CENTRAL OREGON

CITY            SKY/WX      TMP DP  RH  WIND    PRES   REMARKS
BEND AIRPORT    PTCLDY      36  28  72  CALM    30.01S
MADRAS AIRPORT  MOCLDY      34  30  85  CALM    30.05R
PRINEVILLE AP   PTCLDY      37  30  75  CALM    30.01S
REDMOND AIRPORT PTCLDY      35  29  78  S3      30.02R
#BEND 1SW       N/A         34  28  78  CALM    N/A
#BEND-AWBREY    N/A         34  30  85  CALM    30.01S
#BEND-KIM LN    N/A         35  30  82  SW1     29.97F
#CROOKED RVR RANN/A         40  32  73  CALM    30.02R
#CULVER         N/A         38  31  76  CALM    30.00R
#LAKE BILLY CHINN/A         37  24  59  W2      30.14R
#POWELL BUTTE 3EN/A         29  26  88  E2      N/A
#POWELL BUTTE   N/A         43  34  70  NW2     29.64R
#PRINEVILLE 3N  N/A         34  31  89  SW1     29.99R
#WARM SPRINGS   N/A         41  34  76  CALM    30.02R

$$


ORZ509-061510-
EAST SLOPES OF OREGON CASCADES

CITY            SKY/WX      TMP DP  RH  WIND    PRES   REMARKS
#BLUE BOX PASS  N/A         32  -18 10  NW2     N/A
#CAMP SHERMAN   N/A         33  28  82  CALM    30.07S
#LA PINE 4NW    N/A         27  23  85  CALM    30.07S
#SISTERS AIRPOR N/A         36  33  89  CALM    30.17S
#SISTERS ODOT   N/A         35  N/A N/A CALM    N/A
#SISTERS 1NW    N/A         31  27  85  N8      N/A
#SISTERS 3N     N/A         39  28  64  CALM    30.04S
#SUNRIVER       N/A         29  26  88  CALM    29.89S
#TUMALO 3W      N/A         35  28  75  NW2     29.91S
#WANOGA BUTTE D N/A         30  19  63  NW2     N/A

$$

ORZ044-061510-
LOWER COLUMBIA BASIN...OREGON

CITY            SKY/WX      TMP DP  RH  WIND    PRES   REMARKS
HERMISTON       SUNNY       45  35  68  SW3     30.03R
#BOARDMAN SCHOOLN/A         44  38  79  S5      30.05R
#BOARDMAN 8SW   N/A         45  40  82  SW6     30.03R
#ECHO 8SW       N/A         48  35  60  W10     30.02S
#IONE SCHOOL    N/A         46  32  58  SW3     29.99S
#IRRIGON 4NW    N/A         41  37  86  E5      N/A
#UMATILLA SCHOOLN/A         44  40  86  CALM    30.03F
#UMATILLA       N/A         62  34  35  W7      29.96R
$$

ORZ507-061510-
NORTHERN FOOTHILLS OF THE BLUES

CITY            SKY/WX      TMP DP  RH  WIND    PRES   REMARKS
PENDLETON AIRPT SUNNY       44  32  62  S6      30.02R
#ADAMS 3WNW     N/A         41  33  73  CALM    30.02R
#ATHENA         N/A         44  34  68  CALM    30.04R
#CAYUSE         N/A         41  34  76  E3      30.03R
#HELIX SCHOOL   N/A         39  34  82  S2      30.01R
#HELIX 3N       N/A         41  34  76  S9      29.98S
#HOLDMAN 6E     N/A         42  35  76  NW2     29.83R
#M-F FERNDALE   N/A         44  34  68  CALM    30.02R
#M-F GROVE ELEM N/A         45  32  60  CALM    30.01R
#M-FREEWATER 5SEN/A         43  34  70  SE1     30.02S
#PENDLETON DNTN N/A         39  25  57  CALM    30.02S
#PDT AQUATIC CTRN/A         42  26  53  CALM    30.03R
#PENDLETON 5NE  N/A         41  36  82  CALM    30.00R
#PDT SUNRIDGE   N/A         41  32  70  CALM    30.05R
#PENDLETON 7NW  N/A         39  32  76  CALM    30.00S
#PILOT ROCK     N/A         44  33  65  CALM    30.04R
#TUTUILLA       N/A         46  35  65  S1      30.04R
#UMAPINE 2E     N/A         48  38  68  SE1     30.00S
#WESTON SCHOOL  N/A         43  30  60  W3      30.01R

$$

ORZ508-061510-
SOUTHERN FOOTHILLS OF THE BLUES

CITY            SKY/WX      TMP DP  RH  WIND    PRES   REMARKS
LEXINGTON       PTCLDY      46  34  63  S6      30.04R
#AJAX           N/A         40  28  62  S5      29.95S
#CONDON SCHOOL  N/A         37  31  79  CALM    29.96S
#CONDON 5W      N/A         35  29  78  SW6     29.96R
#FOSSIL SCHOOL  N/A         40  32  73  CALM    29.98S
#HEPPNER EOC    N/A         43  34  70  SW6     29.94R
#HEPPNER 4NE    N/A         41  34  76  SW5     30.01R
#LEXINGTON 2SE  N/A         47  35  63  SW2     29.98S
#MIKKALO        N/A         44  32  62  SW5     30.02R
#OLEX 4N        N/A         45  36  70  SW9     30.00R
#RUGGS 5NE      N/A         40  32  73  SW6     30.14R
#RUGGS 2SW      N/A         38  32  79  SW3     30.03R

$$

ORZ502-503-061510-
BLUE MOUNTAINS

CITY            SKY/WX      TMP DP  RH  WIND    PRES   REMARKS
MEACHAM         CLOUDY      33  27  78  CALM    29.99S
#BATTLE MTN DOT N/A         34  34  100 CALM    N/A
#HEPPNER 15SE   N/A         34  31  89  CALM    29.88R
#LADD CYN SMT   N/A         38  27  64  N6      N/A
#LADD CREEK ODOTN/A         33  29  85  CALM    N/A
#LONG CREEK HS  N/A         36  34  92  CALM    29.94S
#N POWDER DOT   N/A         38  32  79  NE7     N/A
#PIKES PEAK     N/A         37  29  72  SW17    27.99S WCI 27
#TOLLGATE       N/A         30  27  88  S5      29.89R
#TROY SCHOOL    N/A         39  31  73  NW1     29.86S
#UKIAH          N/A         37  32  82  VRB2    30.05S
#WESTON 4E      N/A         37  31  79  S6      29.96R
$$

ORZ505-061510-
JOHN DAY BASIN

CITY            SKY/WX      TMP DP  RH  WIND    PRES   REMARKS
JOHN DAY        CLOUDY      39  32  76  W5      29.99S
#JOHN DAY KJDY  N/A         43  30  60  W1      30.05F
#DAYVILLE SCHOOLN/A         37  29  72  CALM    29.99R
#MITCHELL       N/A         38  34  85  CALM    30.15R
#MONUMENT HS    N/A         38  38  100 N2      30.02S
#MT. VERNON 5SE N/A         37  31  79  SW1     29.93S
#WINLOCK        N/A         44  32  62  CALM    30.08R
$$

ORZ506-061510-
OCHOCO AND JOHN DAY HIGHLANDS

CITY            SKY/WX      TMP DP  RH  WIND    PRES   REMARKS
#BUCK CREEK DOT N/A         33  33  100 NW3     N/A
#HORSE RIDGE DO N/A         30  22  72  CALM    N/A
#KEYES SMT DOT  N/A         36  30  79  NW8     N/A
#PAULINA SCHOOL N/A         36  28  72  CALM    29.96S
#PINE MTN OBS   N/A         27  25  92  CALM    N/A
#PRAIRIE CITY   N/A         34  29  82  CALM    30.12S
#SENECA         N/A         29  N/A N/A CALM    N/A
#SENECA 9NW     N/A         26  24  92  CALM    29.95R
$$

ORZ049-061510-
GRANDE RONDE VALLEY

CITY            SKY/WX      TMP DP  RH  WIND    PRES   REMARKS
LA GRANDE       PTCLDY      43  18  36  NW9     29.99R
#COVE           N/A         37  32  82  CALM    30.01R
#COVE SCHOOL    N/A         37  31  79  CALM    29.98R
#ELGIN 3N       N/A         35  29  78  CALM    29.98S
#ELGIN 1E       N/A         32  27  82  CALM    N/A
#IMBLER SCHOOL  N/A         43  25  49  N2      29.96R
#ISLAND CITY 4N N/A         45  44  96  CALM    30.10R
#LADD CYN DOT   N/A         41  31  67  N8      N/A
#LA GRANDE ELEM N/A         42  30  62  W9      30.01F
#UNION 1S       N/A         34  28  78  CALM    29.92R
$$

ORZ050-061510-
WALLOWA COUNTY

CITY            SKY/WX      TMP DP  RH  WIND    PRES   REMARKS
JOSEPH AIRPORT  SUNNY       34  27  75  CALM    29.98S
#ENTERPRISE HS  N/A         29  23  78  CALM    30.00S
#IMNAHA SCHOOL  N/A         38  30  73  S2      30.00S
#IMNAHA 10S     N/A         34  25  69  SW2     29.98S
#JOSEPH 3N      N/A         28  22  78  CALM    29.99S
#JOSEPH 3W      N/A         35  23  61  CALM    29.79S
#LOSTINE        N/A         33  25  72  CALM    29.83R
#MT HOWARD 8000 N/A         24  19  81  CALM    29.86R
#PROMISE 1S     N/A         40  31  70  CALM    30.07F
#SHEEP RDG 7000 N/A         27  23  85  CALM    29.99R
#WALLOWA SCHOOL N/A         31  24  75  CALM    30.97R



$$



USA.gov is the U.S. government's official web portal to all federal, state and local government web resources and services.